[[{"header":{"parameterUnit":"m.s-1","parameterCategory":1,"la1":30.2991,"la2":30.254,"lo1":-89.0895,"lo2":-89.0444,"dy":0.0017,"dx":0.0017,"nx":28,"ny":28,"refTime":"2025-05-25T21:00:00:Z","depth":0,"parameterNumber":2,"parameterNumberName":"U-component_of_WINDS"},"data":[0,0,0,0,0,0,0,0,0,0,0,0,0,0,0,0,0,0,0,0,0,0,0,0,0,0,0,0,0,0,0,0,0,0,0,0,0,0,0,0,0,0,0,0,0,0,0,0,0,0,0,0,0,0,0,0,0,0,-0.8187,-0.8186,0,-0.8076,-0.8074,-0.8073,-0.8005,-0.8005,-0.8005,-0.8004,-0.789,-0.7887,-0.7885,0,0,0,0,0,0,0,0,0,0,0,0,0,-0.8343,-0.834,-0.8187,-0.8186,-0.8185,-0.8076,-0.8074,-0.8073,-0.8005,-0.8005,-0.8004,-0.8004,-0.7891,-0.7888,-0.7884,0,0,0,0,0,0,0,0,0,0,0,0,0,-0.8258,-0.8339,-0.8188,-0.8138,-0.8132,-0.8076,-0.8074,-0.8072,-0.8005,-0.8005,-0.8004,-0.8004,-0.7892,-0.7888,-0.7884,-0.7869,0,0,-0.7871,-0.787,0,0,0,0,0,0,0,0,-0.8263,-0.8252,-0.8146,-0.8141,-0.8135,-0.8054,-0.8087,-0.8004,-0.8006,-0.8054,-0.8004,-0.8004,-0.7945,-0.7936,-0.7917,-0.7863,-0.7858,-0.7871,-0.7868,-0.7867,-0.7866,0,0,0,0,0,0,0,-0.8269,-0.8257,-0.8143,-0.8145,-0.8138,-0.8121,-0.8109,-0.8071,-0.8003,-0.8049,-0.8044,-0.8032,-0.7942,-0.7921,-0.7913,-0.7857,-0.7871,-0.7867,-0.7865,-0.7863,-0.7786,-0.7786,0,0,0,0,0,0,-0.8282,-0.8262,-0.8147,-0.814,-0.8199,-0.8119,-0.8105,-0.808,-0.8004,-0.7991,-0.8032,-0.8029,-0.7928,-0.7918,-0.7909,-0.7886,-0.7867,-0.7863,-0.7861,-0.7785,-0.7786,-0.7786,0,0,0,0,0,0,-0.8286,-0.8273,-0.8151,-0.8199,-0.8183,-0.8117,-0.809,-0.8078,-0.8057,-0.7991,-0.7978,-0.8023,-0.7927,-0.7915,-0.7879,-0.7881,-0.7861,-0.7857,-0.7785,-0.7786,-0.7786,-0.7841,0,0,0,0,0,0,-0.8291,-0.8274,-0.8268,-0.82,-0.818,-0.8123,-0.809,-0.8077,-0.805,-0.8045,-0.7979,-0.7968,-0.7926,-0.7886,-0.7875,-0.7875,-0.7854,-0.7784,-0.7785,-0.7786,-0.7839,-0.7843,-0.7847,0,0,0,0,0,-0.8296,-0.8288,-0.8268,-0.8254,-0.8171,-0.8124,-0.8112,-0.8064,-0.8051,-0.8044,-0.8001,-0.797,-0.7883,-0.7883,-0.787,-0.7869,-0.7784,-0.7785,-0.7786,-0.7837,-0.7842,-0.7847,0,0,0,0,0,0,-0.8357,-0.8278,-0.8255,-0.8224,-0.8181,-0.8112,-0.8102,-0.8072,-0.8032,-0.8029,-0.7971,-0.7957,-0.7927,-0.7894,-0.7895,-0.7851,-0.783,-0.7829,-0.7873,-0.7878,-0.7882,-0.789,-0.7851,0,0,0,0,0,-0.8367,-0.8336,-0.8268,-0.8247,-0.8226,-0.8168,-0.8146,-0.8112,-0.8066,-0.8047,-0.8002,-0.7958,-0.7921,-0.7898,-0.786,-0.7834,-0.7818,-0.7827,-0.7831,-0.7835,-0.7834,-0.7819,-0.7822,-0.7789,-0.7789,-0.7789,0,0,-0.8387,-0.834,-0.8323,-0.8258,-0.8221,-0.8189,-0.8153,-0.8121,-0.8098,-0.8042,-0.8006,-0.7972,-0.7919,-0.7888,-0.7872,-0.786,-0.784,-0.7836,-0.784,-0.7837,-0.782,-0.7823,-0.7826,-0.779,-0.779,-0.779,0,0,-0.8407,-0.8368,-0.8346,-0.831,-0.8255,-0.8216,-0.8211,-0.8147,-0.8122,-0.8085,-0.8043,-0.8014,-0.7951,-0.7915,-0.7889,-0.7897,-0.7866,-0.7886,-0.7908,-0.7894,-0.7896,-0.7898,-0.7901,-0.7903,-0.7885,-0.7886,-0.7886,0,-0.8439,-0.839,-0.8339,-0.831,-0.8282,-0.8231,-0.8209,-0.8177,-0.8112,-0.8094,-0.8082,-0.8002,-0.7963,-0.7923,-0.7925,-0.7906,-0.7898,-0.7893,-0.79,-0.7901,-0.7902,-0.7904,-0.7906,-0.7888,-0.7888,-0.7888,-0.7887,0,-0.8432,-0.8398,-0.8388,-0.8326,-0.8298,-0.8272,-0.8218,-0.8195,-0.8165,-0.8128,-0.8091,-0.8042,-0.7994,-0.7982,-0.7952,-0.7938,-0.7933,-0.7911,-0.7889,-0.7909,-0.791,-0.791,-0.7892,-0.7891,-0.789,-0.789,0,0,-0.8486,-0.8398,-0.8395,-0.8366,-0.8302,-0.8275,-0.8248,-0.82,-0.8182,-0.814,-0.8115,-0.8064,-0.8043,-0.8013,-0.7979,-0.7966,-0.7976,-0.7946,-0.7944,-0.7953,-0.7958,-0.7974,-0.7976,-0.7955,-0.7955,-0.7955,-0.7962,0,-0.8497,-0.8445,-0.8398,-0.8363,-0.8332,-0.8284,-0.826,-0.8218,-0.8183,-0.8151,-0.8112,-0.8077,-0.8052,-0.8034,-0.8019,-0.7978,-0.7976,-0.7977,-0.7932,-0.7931,-0.7946,-0.7976,-0.7993,-0.8002,-0.7962,-0.7962,-0.7962,0,-0.8502,-0.8461,-0.8423,-0.8362,-0.8347,-0.8326,-0.8279,-0.825,-0.8202,-0.8177,-0.8145,-0.8109,-0.8078,-0.806,-0.8016,-0.8018,-0.7997,-0.7974,-0.7973,-0.7967,-0.7948,-0.7971,-0.8004,-0.8005,-0.7962,-0.7962,-0.7962,0,-0.8546,-0.8482,-0.845,-0.8428,-0.8355,-0.8342,-0.8312,-0.8263,-0.8237,-0.8197,-0.818,-0.8136,-0.8112,-0.8079,-0.8033,-0.8024,-0.7994,-0.7972,-0.7973,-0.7974,-0.7968,-0.7969,-0.7999,-0.7956,-0.7956,-0.7956,-0.7956,0,-0.8562,-0.8541,-0.8469,-0.845,-0.8424,-0.8372,-0.8348,-0.8313,-0.8271,-0.8244,-0.82,-0.8176,-0.8116,-0.8085,-0.8048,-0.8018,-0.8008,-0.7987,-0.7977,-0.7991,-0.7993,-0.7976,-0.7974,-0.7956,-0.7956,-0.7956,-0.7956,0,-0.8607,-0.8558,-0.852,-0.8455,-0.8439,-0.8423,-0.8367,-0.8347,-0.831,-0.8277,-0.8266,-0.8207,-0.8169,-0.8119,-0.8065,-0.804,-0.8014,-0.7999,-0.803,-0.8025,-0.8028,-0.8028,-0.8047,-0.8047,-0.8005,-0.8005,-0.8006,0,-0.862,-0.8602,-0.8536,-0.8515,-0.8485,-0.8452,-0.8426,-0.8374,-0.8349,-0.8293,-0.828,-0.8237,-0.8201,-0.8141,-0.8094,-0.8052,-0.8036,-0.8046,-0.803,-0.8044,-0.8036,-0.8038,-0.8036,-0.805,-0.805,-0.8051,-0.8051,0,-0.8649,-0.8626,-0.859,-0.8546,-0.8516,-0.8479,-0.844,-0.8425,-0.8365,-0.8339,-0.8299,-0.8271,-0.8216,-0.8174,-0.8127,-0.8095,-0.8064,-0.8057,-0.8055,-0.8068,-0.8087,-0.8076,-0.8041,-0.8057,-0.8056,-0.8056,-0.8055,-0.8055,-0.8678,-0.8661,-0.8611,-0.8572,-0.8538,-0.8502,-0.848,-0.844,-0.8406,-0.8356,-0.8328,-0.8289,-0.8241,-0.8174,-0.8144,-0.8113,-0.8101,-0.8098,-0.8097,-0.8097,-0.8101,-0.8092,-0.8104,-0.8104,-0.8104,-0.8103,-0.8103,0,-0.8706,-0.8671,-0.8636,-0.8583,-0.8553,-0.8526,-0.8481,-0.8458,-0.8424,-0.8382,-0.8348,-0.8302,-0.8262,-0.8212,-0.8168,-0.8153,-0.8138,-0.8144,-0.8144,-0.8137,-0.8115,-0.8121,-0.8157,-0.8157,-0.8157,-0.8157,-0.8157,-0.8157,-0.8716,-0.8684,-0.8655,-0.8606,-0.8572,-0.8533,-0.851,-0.8477,-0.8444,-0.8395,-0.8361,-0.8329,-0.8284,-0.8237,-0.8199,-0.8185,-0.8171,-0.8182,-0.8164,-0.8144,-0.8139,-0.8134,-0.814,-0.8179,-0.8179,-0.8189,-0.8189,-0.8189]},{"header":{"parameterUnit":"m.s-1","parameterCategory":1,"la1":30.2991,"la2":30.254,"lo1":-89.0895,"lo2":-89.0444,"dy":0.0017,"dx":0.0017,"nx":28,"ny":28,"refTime":"2025-05-25T21:00:00:Z","depth":0,"parameterNumber":3,"parameterNumberName":"V-component_of_WINDS"},"data":[0,0,0,0,0,0,0,0,0,0,0,0,0,0,0,0,0,0,0,0,0,0,0,0,0,0,0,0,0,0,0,0,0,0,0,0,0,0,0,0,0,0,0,0,0,0,0,0,0,0,0,0,0,0,0,0,0,0,5.3218,5.3218,0,5.3192,5.3192,5.3191,5.3108,5.3106,5.3104,5.3102,5.3077,5.3078,5.3079,0,0,0,0,0,0,0,0,0,0,0,0,0,5.32,5.3201,5.3218,5.3218,5.3218,5.3192,5.3191,5.3191,5.3108,5.3106,5.3104,5.3102,5.3076,5.3078,5.3079,0,0,0,0,0,0,0,0,0,0,0,0,0,5.3194,5.3201,5.3219,5.3173,5.3169,5.3192,5.3191,5.3191,5.3109,5.3106,5.3103,5.3101,5.3076,5.3078,5.3079,5.3144,0,0,5.3084,5.3084,0,0,0,0,0,0,0,0,5.3195,5.3195,5.318,5.3176,5.3172,5.315,5.3175,5.3175,5.3109,5.3132,5.3102,5.3099,5.3104,5.3103,5.3104,5.3143,5.3142,5.3084,5.3085,5.3086,5.3086,0,0,0,0,0,0,0,5.3195,5.3196,5.3208,5.318,5.3175,5.3155,5.3151,5.3175,5.3134,5.313,5.3123,5.3121,5.3101,5.3103,5.3103,5.3141,5.3084,5.3085,5.3086,5.3087,5.3234,5.3237,0,0,0,0,0,0,5.3202,5.3196,5.3209,5.3207,5.3176,5.3158,5.3153,5.316,5.3133,5.3126,5.3124,5.3118,5.3101,5.3101,5.3101,5.3176,5.3086,5.3087,5.3088,5.3231,5.3234,5.3238,0,0,0,0,0,0,5.3202,5.3204,5.321,5.32,5.3199,5.3161,5.3169,5.3161,5.3163,5.3129,5.3121,5.3133,5.3099,5.3099,5.3134,5.3174,5.3088,5.3089,5.3227,5.3232,5.3236,5.3327,0,0,0,0,0,0,5.3201,5.3204,5.3228,5.3201,5.32,5.3243,5.3172,5.3162,5.3165,5.3157,5.3135,5.3129,5.3097,5.3132,5.3136,5.3175,5.309,5.3224,5.3229,5.3235,5.332,5.3334,5.3346,0,0,0,0,0,5.3201,5.3254,5.3229,5.3231,5.3229,5.3245,5.3245,5.3206,5.3169,5.3193,5.3171,5.313,5.317,5.3137,5.314,5.318,5.3221,5.3228,5.3234,5.3314,5.3331,5.3345,0,0,0,0,0,0,5.3286,5.325,5.3222,5.3268,5.326,5.3231,5.326,5.3225,5.3228,5.322,5.3172,5.3168,5.321,5.3198,5.3163,5.3242,5.3188,5.3196,5.3248,5.3264,5.3276,5.3278,5.3092,0,0,0,0,0,5.3311,5.3326,5.3294,5.3338,5.3335,5.3299,5.3304,5.3275,5.3266,5.3262,5.3243,5.3236,5.3246,5.3254,5.3262,5.3318,5.3313,5.3347,5.336,5.3371,5.3378,5.3408,5.3423,5.326,5.326,5.3259,0,0,5.3361,5.3343,5.3356,5.3355,5.3345,5.3363,5.3296,5.3318,5.3331,5.3265,5.3297,5.3283,5.3272,5.3318,5.3337,5.331,5.3422,5.3379,5.3388,5.3389,5.3416,5.3432,5.3446,5.3264,5.3263,5.3263,0,0,5.3462,5.3449,5.3485,5.3477,5.3464,5.3439,5.3448,5.3425,5.3413,5.3444,5.3395,5.3411,5.343,5.3424,5.3424,5.3525,5.3487,5.3529,5.3595,5.3625,5.3638,5.3649,5.3685,5.3699,5.3536,5.3536,5.3536,0,5.3526,5.355,5.3508,5.3533,5.3534,5.3476,5.3512,5.3507,5.3497,5.35,5.3469,5.3493,5.3481,5.3525,5.355,5.3552,5.3561,5.3531,5.3639,5.365,5.366,5.3694,5.3708,5.3541,5.3541,5.354,5.354,0,5.363,5.3648,5.3679,5.3671,5.3676,5.3707,5.367,5.368,5.3651,5.3631,5.3664,5.3648,5.3652,5.3661,5.3633,5.3702,5.3685,5.3648,5.3592,5.3681,5.3713,5.3726,5.3549,5.3547,5.3545,5.3544,0,0,5.3783,5.3752,5.3764,5.376,5.3742,5.3756,5.3785,5.3789,5.3799,5.3795,5.3818,5.3837,5.3802,5.3802,5.3773,5.3799,5.388,5.3758,5.3757,5.3782,5.3957,5.3985,5.4001,5.3856,5.3858,5.386,5.3958,0,5.3879,5.3925,5.3889,5.3943,5.3959,5.3905,5.393,5.3922,5.3904,5.3916,5.3896,5.391,5.3863,5.3863,5.3886,5.3866,5.3915,5.3858,5.3878,5.3879,5.3882,5.4017,5.4048,5.4141,5.397,5.3972,5.3973,0,5.3996,5.3998,5.4053,5.4033,5.4038,5.4061,5.4063,5.4075,5.4066,5.4051,5.4051,5.4016,5.4043,5.399,5.4028,5.399,5.3996,5.3988,5.399,5.3991,5.3932,5.4022,5.417,5.4184,5.3992,5.3991,5.3989,0,5.4103,5.4119,5.4154,5.4153,5.4129,5.4147,5.4138,5.4126,5.4131,5.4133,5.4136,5.4141,5.4144,5.4149,5.4116,5.408,5.4159,5.4103,5.4148,5.4149,5.4167,5.4167,5.4318,5.4171,5.4171,5.4171,5.417,0,5.4214,5.425,5.4202,5.4224,5.4263,5.4222,5.4262,5.4248,5.4238,5.4256,5.4209,5.4228,5.4184,5.4198,5.4173,5.4209,5.421,5.42,5.4193,5.4204,5.4206,5.4207,5.42,5.4174,5.4173,5.4173,5.4172,0,5.434,5.4309,5.4344,5.4319,5.4314,5.4344,5.4324,5.4343,5.4322,5.4347,5.435,5.4318,5.4332,5.43,5.431,5.4293,5.4345,5.4327,5.4348,5.4343,5.4391,5.4387,5.4549,5.4569,5.4409,5.441,5.4412,0,5.4413,5.4439,5.4418,5.4427,5.4421,5.4436,5.4441,5.4402,5.4409,5.4402,5.4423,5.4434,5.444,5.4466,5.4444,5.4452,5.4435,5.4491,5.4435,5.4447,5.4436,5.4435,5.4438,5.4503,5.4504,5.4506,5.4507,0,5.4546,5.4529,5.4538,5.4543,5.4551,5.4552,5.455,5.4561,5.4519,5.453,5.4544,5.455,5.4561,5.4572,5.4575,5.4567,5.4531,5.4525,5.4536,5.4548,5.456,5.4555,5.438,5.4521,5.452,5.4519,5.4518,5.4518,5.4647,5.4669,5.4658,5.467,5.4665,5.4665,5.4682,5.4664,5.4675,5.4681,5.4657,5.4677,5.4668,5.4668,5.4664,5.468,5.4655,5.4671,5.4675,5.4679,5.4687,5.4557,5.468,5.468,5.4679,5.4679,5.4679,0,5.4778,5.4769,5.478,5.478,5.479,5.4755,5.4752,5.4762,5.4781,5.4775,5.4783,5.4801,5.4812,5.4791,5.48,5.4816,5.48,5.482,5.4819,5.4817,5.4709,5.4699,5.4833,5.4833,5.4833,5.4833,5.4833,5.4833,5.4848,5.4883,5.4866,5.4898,5.4888,5.4908,5.4909,5.4909,5.4905,5.4926,5.4936,5.4922,5.4911,5.4918,5.4927,5.4921,5.4927,5.4953,5.4941,5.484,5.4825,5.481,5.4801,5.4954,5.4954,5.5047,5.5048,5.5049]}]]